Regional Weather Roundup
Issued by NWS Charleston, SC

Current Version | Previous Version | Graphics & Text | Print | Product List | Glossary On
Versions: 1 2 3 4 5 6 7 8 9 10 11 12 13 14 15 16 17 18 19 20 21 22 23 24 25 26 27 28 29 30 31 32 33 34 35 36 37 38 39 40 41 42 43 44 45 46 47 48 49 50
000 ASUS42 KCHS 292211 RWRCHS REGIONAL WEATHER ROUNDUP NATIONAL WEATHER SERVICE CHARLESTON SC 500 PM EST THU JAN 29 2015 NOTE: "FAIR" INDICATES FEW OR NO CLOUDS BELOW 12,000 FEET WITH NO SIGNIFICANT WEATHER AND/OR OBSTRUCTIONS TO VISIBILITY. NOT ALL STATIONS ARE QUALITY CONTROLLED BY THE NATIONAL WEATHER SERVICE. USE DATA WITH CAUTION...ESPECIALLY DEWPOINT OBSERVATIONS. SCZ027-030-031-034>040-042>050-292300- ...SOUTHEAST SOUTH CAROLINA... CITY SKY/WX TMP DP RH WIND PRES REMARKS N CHARLESTON MOCLDY 54 38 54 SW9 30.22F WATERFRONT PRK N/A 54 N/A N/A S6 N/A MOUNT PLEASANT FAIR 54 37 54 CALM 30.22F PINOPOLIS N/A 63 34 34 VRB3 30.12F MONCKS CORNER FAIR 55 34 44 SW9 30.20F SUMMERVILLE FAIR 54 37 54 S5 30.21F BEAUFORT MCAS MOCLDY 54 42 64 S6 30.23F BEAUFORT ARPT FAIR 54 43 66 S5 30.22F HILTON HEAD IS MOCLDY 52 43 71 CALM 30.23F WALTERBORO MOCLDY 55 34 44 S8 30.21F ALLENDALE FAIR 57 34 41 S5 30.18F ...SOUTHERN MIDLANDS AND PEE DEE... CITY SKY/WX TMP DP RH WIND PRES REMARKS GEORGETOWN NOT AVBL KINGSTREE NOT AVBL ORANGEBURG PTCLDY 55 26 32 SW8 30.18F BARNWELL FAIR 57 30 35 S9 30.18F AIKEN FAIR 54 27 35 S9 30.18F MANNING FAIR 55 -22 4 CALM 30.19F COLUMBIA CLOUDY 55 23 28 S10 30.15F SUMTER CLOUDY 53 22 29 S10 30.15F FLORENCE PTCLDY 52 19 27 S9 30.18F MYRTLE BEACH CLEAR 50 32 50 S12 30.24F N MYRTLE BEACH MOCLDY 49 32 52 S5 30.22F $$ GAZ063-065-086>088-099>101-113>116-118-119-134>141-150-292300- ...SOUTHEAST GEORGIA... CITY SKY/WX TMP DP RH WIND PRES REMARKS SAVANNAH ARPT CLOUDY 58 41 53 SE9 30.22S HUNTER AAF MOCLDY 56 43 60 S7 30.21F FORT STEWART PTSUNNY 61 40 45 SW5 30.20S STATESBORO PTSUNNY 58 37 44 S7 30.20F SYLVANIA MOCLDY 58 37 45 SW7 30.20F CLAXTON FAIR 61 36 39 SW3 30.21F ...CSRA...CENTRAL AND FAR SOUTHEAST GEORGIA... CITY SKY/WX TMP DP RH WIND PRES REMARKS THOMSON PTSUNNY 58 31 35 S6 30.19F AUGUSTA-BUSH MOCLDY 57 24 28 S12 30.17F AUGUSTA-DANIEL MOCLDY 57 24 28 S12 30.16F SWAINSBORO FAIR 61 3 10 S8 30.19F VIDALIA MOSUNNY 59 36 41 SW7 30.21F EASTMAN FAIR 61 30 31 SW7 30.22F HAZLEHURST FAIR 62 35 35 SW5 30.20F ALMA MOSUNNY 62 35 36 S6 30.21S WAYCROSS MOSUNNY 67 41 39 SW9 30.22S JESUP FAIR 64 45 48 CALM 30.21F BAXLEY FAIR 63 36 36 SW5 30.21S BRUNSWICK PTSUNNY 61 45 55 SE7 30.24S SAINT SIMONS PTSUNNY 54 45 71 E7 30.23F $$ SCZ027-028-034-036>038-045-046-048>050-GAZ119-141-292300- ...LAKE AND SUPPLEMENTAL COASTAL OBSERVATIONS... STATION/POSITION TIME TEMP WIND PRES WAVE SWELL AIR SEA DIR/SP/G HT/PER HT/PER/DIR (UTC) (F) (DEG/KT/KT) (MB) (FT/S) (FT/S/D) UPR LAKE MARION NOT AVBL WINYAH BAY 2045 51 170/ 6 1023.0 LAKE MURRAY 2100 53 190/ 13/ 15 1020.7F ACE BASIN NERRS NOT AVBL FORT PULASKI 2100 54 52 140/ 3/ 5 1024.5F SAPELO ISLAND 2100 58 120/ 5 1024.0S $$ ANZ835-935-AMZ111-154-330-350-352-354-370-450-454-472-292300- ...C-MAN AND BUOY OBSERVATIONS... STATION/POSITION TIME TEMP WIND PRES WAVE SWELL AIR SEA DIR/SP/G HT/PER HT/PER/DIR (UTC) (F) (DEG/KT/KT) (MB) (FT/S) (FT/S/D) BUOY 41004 2150 58 68 220/ 10/ 14 1023.3F 3/11 3/11 BUOY 41008 2150 53 54 40/ 2/ 4 1023.8F 2/10 2/ 80/10 FOLLY BEACH CMAN 2200 50 160/ 2/ 2 1023.9F CAPERS NEARSHORE 2100 54 CALM / 2 N/A FRIPP NEARSHORE 2100 53 70/ 2/ 4 1023.3F STATION/POSITION TIME TEMP WIND PRES WAVE SWELL AIR SEA DIR/SP/G HT/PER HT/PER/DIR (UTC) (F) (DEG/KT/KT) (MB) (FT/S) (FT/S/D) 5E ST. MARYS GA NOT AVBL FRYING PAN BUOY 2150 54 67 210/ 10/ 14 1024.2F 3/10 3/ 70/10 BUOY 41025 2150 43 71 280/ 4/ 8 1023.7F 5/10 5/ 60/10 CAPE LOOKOUT NC 2100 42 230/ 5/ 6 1024.0F BUOY 41002 2150 57 72 300/ 4/ 8 1024.6R 6/ 9 7/ 30/ 9 BUOY 41010 2120 64 75 120/ 4/ 8 1024.0F ST AUGUSTINE FL 2200 58 50/ 4/ 4 1024.3R $$

USA.gov is the U.S. government's official web portal to all federal, state and local government web resources and services.